Location: Dumbr?vi?a
(45.8833°N, 22.7000°E)
Time: 16:56:14
(UTC+00:00)

SJ 16-02 - Pass Details

Date: 03 March 2021
Orbit: 605 x 617 km, 75.0° (Epoch: 16 April)

Event Time Altitude Azimuth Distance (km) Brightness Sun altitude
Rises 17:57:14 0° 350° (N) 2,883 5.0 -17.9°
Reaches altitude 10° 17:59:54 10° 6° (N) 1,976 4.0 -18.4°
Enters shadow 18:02:32 21° 41° (NE) 1,387 2.9 -18.8°
